Temp
58 51 47 52 52 55 51 47 48 52 58 53 51 50 53 56 56 55 55 56 58 60 63 64 65 64 64 64 64 64 63 64 61 65 66 67 67 68 69 68 70 69 70 74
52 47 57 61 57 54 52 49 48 53 58 53 52 49 53 55 54 54 55 56 57 59 61 63 63 63 61 60 61 62 63 62 62 62 66 66 69 68 69 69 70 70 70 72
48 57 63 61 56 54 51 48 48 49 53 53 50 46 50 54 56 57 57 57 58 58 58 60 61 61 61 60 61 62 61 63 61 60 62 63 63 64 65 65 67 70 72 73
53 62 59 55 56 55 46 56 54 52 47 39 50 34 44 49 50 53 54 53 56 58 58 59 60 59 60 61 62 61 61 61 63 61 58 61 66 66 65 70 70 69 72 73
53 54 54 53 55 57 52 57 52 51 44 39 44 34 41 48 47 50 51 54 54 56 57 58 58 59 60 61 61 61 60 60 61 61 60 61 63 68 67 70 69 69 69 71
53 60 58 56 59 58 59 53 47 44 39 28 39 37 37 41 46 48 52 54 55 56 57 58 60 59 59 61 61 60 59 59 60 60 62 58 59 63 60 60 63 64 67 68
49 52 58 60 52 55 51 41 28 30 28 31 42 36 39 48 51 52 51 53 54 54 55 56 56 56 58 60 60 60 60 58 60 60 60 61 60 62 64 64 63 64 65 67
39 39 52 59 51 47 46 41 29 20 23 30 41 32 40 52 54 54 54 52 52 54 54 55 55 56 57 58 58 59 59 59 60 61 60 62 60 64 67 66 65 65 65 67
39 42 55 57 56 51 46 39 43 31 31 28 34 41 48 50 51 52 51 51 50 52 53 54 55 56 56 57 57 58 61 62 60 60 61 61 59 60 65 66 66 67 66 66
45 36 50 55 56 56 50 51 36 33 21 24 32 34 35 43 46 49 48 47 49 53 53 54 55 56 57 57 58 61 62 61 60 58 59 60 59 60 64 65 66 66 66 67
45 41 44 49 46 45 48 43 42 38 31 29 27 31 46 43 47 45 47 47 48 50 52 53 54 56 57 58 58 57 60 59 59 58 57 58 58 60 65 65 66 66 65 66
47 40 34 42 51 56 51 45 44 35 30 32 33 36 48 47 47 46 46 47 49 51 52 53 53 57 57 57 56 57 56 58 58 59 57 56 57 59 64 65 65 64 65 65
46 37 31 37 43 50 44 51 46 40 37 32 33 32 50 49 48 48 46 48 49 50 51 53 54 55 56 56 55 55 55 56 57 58 57 56 56 58 62 62 63 64 65 65
52 38 36 27 38 42 41 46 47 43 37 33 36 37 45 47 45 47 47 46 47 48 50 51 51 53 54 54 53 53 54 55 56 56 56 56 56 61 62 63 62 61 64 63
46 38 39 42 45 46 46 46 47 43 44 36 39 38 44 46 45 46 47 46 47 48 49 49 50 51 52 52 51 52 52 53 54 54 56 58 59 59 60 60 59 61 61 59
43 38 38 40 47 48 45 47 50 47 45 46 44 41 49 48 48 47 48 47 46 47 48 50 50 50 50 50 49 50 50 51 53 53 54 58 58 59 60 59 59 56 54 53
42 39 35 34 44 44 38 45 47 47 46 44 37 43 46 46 47 46 46 46 45 46 48 48 48 48 49 48 48 47 48 51 52 53 55 56 54 54 54 54 54 52 51 50
41 40 42 33 38 31 44 51 53 49 49 48 46 47 48 47 47 46 47 45 45 45 47 47 47 47 48 47 47 48 49 50 50 52 52 53 52 52 51 51 50 49 49 48
48 41 41 38 32 41 45 49 47 45 44 48 47 48 49 49 47 47 47 45 45 44 45 45 47 48 47 46 46 47 48 49 48 50 50 51 51 50 50 48 47 47 46 45
45 43 38 36 35 25 41 52 56 51 36 50 49 48 47 46 41 45 46 46 46 44 44 45 47 47 46 45 46 46 47 47 46 47 48 49 49 48 47 48 47 46 45 45
37 37 36 34 36 39 48 55 56 36 40 48 50 50 47 43 45 48 46 45 44 44 44 47 48 45 44 45 45 45 46 45 46 47 47 47 47 47 46 46 46 45 44 43
42 39 34 35 36 32 52 52 43 46 48 51 52 51 49 49 49 48 44 45 43 42 43 47 45 43 44 44 44 44 43 45 45 45 45 45 45 46 45 45 44 44 42 41
37 39 36 38 38 46 48 48 51 50 50 52 50 53 51 50 50 48 44 43 42 41 43 46 43 42 43 44 44 44 44 45 44 44 43 44 44 44 44 43 41 39 40 39
41 44 38 40 43 46 50 51 53 54 52 54 54 54 52 51 52 46 43 42 40 40 44 44 41 41 41 43 45 45 45 45 44 42 42 43 43 43 43 43 43 42 41 41
42 42 39 38 43 47 49 52 52 52 54 54 54 54 53 52 51 45 43 41 39 42 44 41 41 41 41 43 44 44 44 43 41 41 40 40 41 40 40 40 40 41 41 47
44 40 36 35 44 43 45 50 52 52 52 52 52 54 54 54 49 45 41 40 40 43 43 41 42 42 42 42 42 42 43 43 41 40 40 39 40 40 39 39 38 40 41 41
MSLP
1010.49 1011.34 1011.57 1011.33 1011.55 1011.23 1011.45 1011.48 1011.18 1010.32 1009.64 1009.74 1009.89 1010.62 1011.00 1011.12 1010.81 1010.85 1010.87 1010.57 1010.01 1009.63 1009.08 1008.76 1008.24 1007.98 1007.38 1006.84 1006.36 1006.17 1005.88 1005.43 1005.33 1005.32 1005.03 1004.71 1004.79 1004.77 1004.76 1004.75 1004.83 1005.41 1005.90 1006.30
1011.16 1011.19 1010.74 1010.35 1010.38 1010.80 1011.03 1011.18 1010.80 1010.35 1009.98 1010.11 1010.13 1010.96 1011.34 1011.22 1011.35 1011.30 1011.19 1010.72 1010.21 1009.27 1008.56 1008.33 1007.94 1007.73 1007.87 1007.55 1006.89 1006.31 1005.98 1005.64 1005.36 1005.19 1004.73 1004.36 1003.36 1003.51 1003.42 1003.83 1004.09 1004.60 1005.21 1005.55
1011.24 1010.70 1010.16 1010.15 1010.09 1010.32 1010.49 1010.59 1010.78 1010.94 1010.51 1010.37 1010.60 1011.34 1011.64 1011.58 1011.50 1011.47 1011.26 1011.08 1010.65 1010.10 1009.28 1008.53 1008.11 1007.85 1007.40 1007.12 1006.87 1006.49 1005.99 1005.61 1005.29 1004.91 1004.51 1004.28 1004.02 1003.22 1003.39 1003.74 1003.92 1003.87 1004.15 1004.58
1010.97 1010.22 1010.13 1009.85 1009.91 1010.18 1010.37 1010.32 1010.75 1011.09 1011.53 1011.77 1011.54 1012.14 1012.10 1011.90 1011.85 1011.67 1011.21 1011.02 1010.68 1010.31 1009.87 1009.53 1008.82 1008.17 1007.79 1007.13 1006.68 1006.26 1005.81 1005.39 1004.85 1004.41 1004.32 1004.05 1003.57 1003.02 1002.16 1002.33 1002.47 1002.94 1003.12 1003.43
1011.49 1010.98 1010.62 1010.31 1010.54 1010.25 1010.49 1010.61 1011.27 1011.84 1012.43 1012.92 1012.88 1013.29 1012.55 1012.36 1012.16 1011.91 1011.73 1011.52 1011.01 1010.62 1010.12 1009.54 1009.07 1008.44 1007.69 1007.06 1006.50 1005.92 1005.38 1005.02 1004.50 1003.98 1003.58 1003.41 1003.03 1002.54 1002.17 1001.61 1001.76 1001.97 1002.32 1002.57
1011.84 1011.27 1011.25 1011.08 1010.67 1010.70 1010.87 1011.38 1012.24 1013.18 1013.92 1014.37 1014.04 1014.00 1013.07 1012.67 1012.50 1012.16 1011.87 1011.55 1011.05 1010.41 1009.76 1009.27 1008.84 1008.19 1007.47 1006.55 1005.90 1005.33 1004.76 1004.28 1003.91 1003.43 1002.87 1002.55 1002.45 1002.22 1001.99 1001.73 1001.44 1001.43 1001.82 1002.24
1012.71 1012.19 1011.73 1011.55 1011.32 1011.18 1011.89 1013.12 1014.60 1015.38 1015.83 1015.63 1014.74 1014.51 1012.76 1012.30 1012.11 1012.15 1011.94 1011.48 1010.99 1010.44 1009.84 1009.14 1008.40 1007.69 1006.75 1005.91 1005.30 1004.87 1004.27 1003.62 1003.28 1002.77 1002.11 1001.60 1001.40 1001.26 1001.05 1000.86 1000.95 1001.06 1001.32 1001.81
1014.15 1013.13 1012.60 1012.32 1012.57 1012.59 1013.07 1014.15 1015.89 1017.09 1017.92 1016.87 1015.13 1014.34 1012.59 1011.94 1011.97 1012.13 1011.97 1011.67 1011.12 1010.60 1009.88 1009.08 1008.31 1007.47 1006.54 1005.74 1005.04 1004.38 1003.64 1003.02 1002.51 1001.77 1000.93 1000.49 1000.34 1000.24 999.85 999.74 999.85 1000.07 1000.27 1000.80
1014.57 1014.25 1013.24 1012.86 1012.63 1012.90 1013.49 1014.69 1015.66 1017.10 1018.36 1018.12 1015.89 1014.14 1012.76 1012.28 1012.45 1012.18 1011.88 1011.69 1011.34 1010.65 1009.85 1009.01 1008.16 1007.51 1006.72 1005.50 1004.90 1004.27 1003.18 1002.08 1001.60 1001.06 999.96 999.10 999.22 999.29 998.73 998.61 998.82 999.03 999.40 999.99
1014.80 1015.04 1014.06 1013.50 1013.02 1012.87 1013.28 1014.52 1015.86 1017.37 1018.62 1018.46 1016.40 1015.06 1013.34 1012.79 1012.72 1012.56 1012.35 1011.85 1011.12 1010.17 1009.30 1008.72 1007.99 1007.07 1006.41 1005.66 1004.60 1003.72 1002.89 1002.08 1001.27 1000.32 999.33 998.72 998.33 998.19 997.96 997.80 997.68 998.22 998.75 999.30
1014.81 1015.61 1015.14 1014.42 1014.09 1013.85 1013.89 1014.63 1015.87 1017.23 1018.21 1018.28 1017.22 1014.90 1013.02 1013.06 1012.94 1012.81 1012.24 1011.63 1010.92 1010.22 1009.43 1008.56 1007.72 1006.88 1005.97 1004.97 1004.25 1003.55 1002.68 1001.78 1000.76 999.89 998.89 998.25 997.49 996.97 996.96 997.01 996.88 997.38 998.10 998.35
1015.14 1016.06 1016.28 1015.36 1014.34 1014.11 1014.07 1014.64 1015.51 1016.97 1017.76 1017.87 1017.17 1014.91 1012.96 1012.87 1012.71 1012.46 1012.06 1011.58 1010.89 1010.24 1009.36 1008.56 1007.81 1006.75 1005.77 1005.04 1004.29 1003.32 1002.51 1001.40 1000.42 999.35 998.24 997.37 996.57 996.12 995.91 996.17 996.30 996.78 997.30 998.17
1015.33 1016.49 1016.83 1015.92 1015.26 1014.51 1014.53 1014.48 1015.06 1015.97 1016.72 1016.85 1016.78 1014.56 1013.01 1012.66 1012.43 1012.17 1011.84 1011.27 1010.74 1010.15 1009.24 1008.27 1007.62 1006.55 1005.71 1004.87 1004.04 1002.91 1001.68 1000.85 999.98 998.95 997.76 996.94 995.85 995.39 995.22 995.62 996.14 996.38 996.98 998.19
1015.43 1016.77 1017.37 1017.38 1016.44 1015.60 1015.03 1014.37 1014.46 1015.12 1016.06 1016.05 1015.71 1014.36 1013.45 1012.84 1012.53 1012.09 1011.60 1011.11 1010.51 1010.14 1009.37 1008.47 1007.39 1006.43 1005.53 1004.68 1003.92 1002.79 1001.61 1000.84 999.80 998.62 997.45 996.00 995.31 994.50 994.48 995.13 995.58 996.24 996.79 998.47
1016.12 1016.92 1017.02 1016.59 1015.99 1015.51 1014.76 1014.11 1013.82 1014.21 1014.50 1015.24 1014.75 1014.56 1013.48 1012.70 1012.34 1011.88 1011.30 1010.70 1010.42 1009.88 1009.25 1008.60 1007.63 1006.62 1005.67 1004.79 1003.88 1002.89 1001.88 1000.76 999.58 998.28 997.19 996.01 995.11 994.32 994.23 994.94 995.34 996.20 997.37 999.07
1016.61 1017.06 1017.02 1016.36 1015.29 1014.94 1014.36 1013.61 1013.29 1013.37 1013.86 1013.95 1013.93 1013.78 1012.73 1012.28 1011.98 1011.65 1011.11 1010.67 1010.40 1009.98 1009.56 1008.77 1007.91 1006.98 1006.04 1005.29 1004.07 1002.97 1001.88 1000.62 999.37 997.89 996.86 995.85 995.30 994.18 994.51 995.26 996.02 997.07 998.29 1000.06
1016.72 1017.01 1017.38 1016.60 1015.45 1014.82 1014.30 1013.19 1012.97 1012.96 1013.19 1013.51 1013.65 1013.15 1012.57 1012.25 1012.06 1011.51 1010.99 1010.69 1010.47 1010.02 1009.54 1008.83 1007.95 1007.16 1006.34 1005.68 1004.45 1003.21 1001.88 1000.49 998.83 997.20 996.25 996.11 996.30 995.33 995.47 996.09 997.01 998.30 999.49 1000.73
1016.06 1016.90 1016.99 1016.70 1016.01 1014.98 1013.24 1012.63 1012.46 1012.45 1012.40 1012.49 1012.76 1012.58 1012.37 1012.06 1011.81 1011.13 1010.62 1010.82 1010.59 1010.20 1009.57 1008.90 1008.13 1007.11 1006.56 1005.75 1004.48 1003.28 1002.01 1000.72 999.25 998.14 997.24 996.84 997.02 996.72 996.89 997.52 998.52 999.59 1000.60 1001.62
1015.18 1016.15 1016.66 1016.62 1016.23 1014.72 1013.24 1012.60 1012.25 1012.24 1012.01 1011.81 1012.20 1012.16 1011.85 1011.50 1011.39 1010.65 1010.29 1010.41 1010.56 1010.40 1009.92 1009.20 1008.37 1007.41 1006.72 1005.93 1004.80 1003.47 1002.26 1001.17 1000.03 999.29 998.52 998.10 998.11 998.10 998.56 999.12 1000.05 1001.08 1001.90 1002.91
1015.56 1016.09 1016.76 1016.86 1016.04 1014.95 1013.06 1012.12 1011.53 1011.89 1011.95 1011.47 1011.64 1011.65 1011.52 1011.37 1011.35 1010.39 1010.21 1010.53 1010.63 1010.47 1010.03 1009.26 1008.36 1007.77 1006.98 1006.12 1005.11 1003.87 1002.82 1001.87 1001.00 1000.41 999.87 999.60 999.43 999.44 999.75 1000.34 1001.58 1002.59 1002.97 1004.42
1016.19 1016.60 1016.58 1016.38 1015.87 1014.38 1012.89 1012.13 1011.59 1012.08 1012.14 1011.19 1011.13 1011.13 1011.13 1011.44 1011.12 1010.18 1010.44 1010.71 1010.79 1010.55 1009.94 1009.31 1008.63 1008.14 1007.34 1006.44 1005.44 1004.29 1003.51 1002.71 1002.16 1001.77 1001.19 1000.74 1001.22 1000.76 1001.12 1001.65 1002.59 1003.38 1004.24 1005.15
1015.58 1015.91 1016.18 1016.08 1015.46 1014.45 1012.95 1012.11 1012.15 1011.77 1011.24 1010.95 1010.68 1010.49 1010.62 1010.47 1010.24 1009.95 1010.44 1010.89 1010.98 1010.72 1010.05 1009.49 1009.01 1008.56 1007.71 1006.91 1005.98 1005.04 1004.31 1003.85 1003.43 1003.01 1002.64 1002.70 1002.61 1002.52 1002.45 1002.74 1004.38 1004.99 1005.63 1006.59
1015.87 1015.80 1015.85 1015.73 1014.63 1013.74 1013.11 1012.65 1011.79 1011.58 1011.35 1010.75 1010.46 1010.00 1009.91 1010.04 1009.80 1009.73 1010.55 1011.07 1011.25 1011.05 1010.59 1010.01 1009.55 1008.97 1008.15 1007.20 1006.40 1005.79 1005.35 1004.78 1004.46 1004.23 1004.24 1003.91 1004.01 1004.49 1004.80 1004.53 1005.75 1006.65 1007.59 1008.38
1016.05 1015.79 1015.82 1015.47 1014.19 1013.64 1013.10 1012.40 1012.07 1011.55 1011.25 1010.53 1010.03 1009.72 1009.48 1009.72 1009.40 1009.88 1010.73 1011.20 1011.46 1011.29 1010.79 1010.45 1010.03 1009.47 1008.68 1007.78 1007.03 1006.56 1006.19 1005.95 1005.70 1005.78 1005.89 1005.85 1005.88 1006.09 1006.51 1006.64 1007.06 1007.48 1008.37 1009.17
1016.17 1015.91 1015.70 1015.26 1014.50 1013.53 1012.89 1012.60 1012.19 1011.47 1010.73 1010.27 1009.72 1009.38 1009.13 1009.23 1009.20 1010.08 1010.97 1011.39 1011.65 1011.51 1011.07 1010.78 1010.42 1010.01 1009.30 1008.54 1007.94 1007.50 1007.29 1007.02 1006.88 1007.31 1007.48 1007.41 1007.51 1007.71 1008.10 1008.52 1009.15 1009.63 1009.98 1009.99
1015.58 1015.32 1015.37 1014.83 1014.36 1014.18 1013.56 1012.69 1012.02 1011.51 1011.02 1010.57 1010.11 1009.42 1008.88 1008.85 1009.41 1010.33 1011.06 1011.59 1011.77 1011.72 1011.50 1011.17 1010.82 1010.42 1009.81 1009.39 1008.95 1008.52 1008.25 1008.18 1008.34 1008.71 1008.93 1009.08 1009.11 1009.39 1009.62 1009.87 1010.69 1011.13 1011.24 1011.67
Wind_Speed
4 5 3 10 9 7 2 2 4 5 5 2 4 3 3 3 7 7 7 8 11 13 10 10 11 10 14 14 14 11 9 9 4 2 4 6 8 8 7 7 10 8 8 10
7 1 6 8 5 5 4 6 5 5 5 2 5 3 4 4 4 4 5 8 12 17 18 15 14 14 11 11 13 14 10 8 6 4 4 4 7 6 10 9 11 11 11 11
3 6 4 3 3 3 3 3 4 5 5 4 1 1 4 1 2 4 4 3 7 11 17 20 21 18 16 15 14 13 12 12 7 8 6 1 3 2 3 4 6 11 14 15
5 6 6 2 3 3 2 3 3 6 4 4 3 5 3 2 5 6 9 10 11 13 12 11 16 17 17 17 14 13 12 13 12 9 6 8 9 8 7 9 10 10 15 14
7 4 7 9 6 2 6 4 3 3 1 2 3 4 5 3 6 10 7 7 8 8 11 14 14 15 16 14 14 13 13 13 13 12 9 8 11 10 4 7 11 13 10 12
4 4 3 4 4 3 4 4 6 4 3 4 1 4 5 2 4 6 6 8 10 12 13 13 15 15 13 13 13 13 13 13 12 13 14 10 11 10 6 6 8 6 7 6
7 4 5 5 8 6 9 7 5 7 7 5 2 3 8 4 6 5 9 11 11 12 13 15 16 16 14 15 16 15 15 16 13 14 15 15 14 14 15 14 10 10 7 7
5 9 6 8 0 5 4 4 6 4 2 6 3 4 7 6 5 6 8 9 10 13 12 14 15 16 15 16 16 18 18 18 16 16 18 16 14 11 12 15 10 10 9 10
4 5 6 2 3 0 1 4 1 5 3 2 4 6 6 3 7 6 10 8 11 13 14 14 14 13 14 13 17 18 21 21 18 17 16 16 12 13 14 15 12 11 10 9
1 4 3 5 4 6 6 4 3 4 2 4 6 5 7 5 8 10 11 9 12 13 16 14 13 15 13 12 12 15 17 18 20 17 12 11 12 13 15 11 14 13 10 12
2 3 7 4 2 2 4 4 4 4 5 4 4 7 4 2 6 9 12 10 12 15 15 15 13 14 15 16 15 14 15 17 19 15 13 13 13 11 12 12 13 12 10 11
1 3 4 7 6 5 2 2 2 3 6 5 2 8 4 4 7 7 10 9 11 12 14 13 12 17 16 16 15 14 12 14 16 19 15 14 14 13 12 11 11 11 11 9
3 2 5 9 7 5 2 3 1 2 3 4 2 8 2 8 9 9 9 11 12 13 16 15 13 14 17 17 17 16 15 16 16 17 16 15 12 11 10 8 8 9 12 10
6 3 7 7 8 3 7 9 6 4 3 4 7 9 15 11 10 10 11 9 11 10 13 14 15 15 17 17 17 16 18 16 17 17 17 15 11 10 11 11 10 7 12 14
4 3 5 7 11 7 12 13 11 5 5 5 5 5 12 12 9 9 9 9 10 12 15 15 17 17 19 18 19 17 15 16 17 17 16 13 11 6 7 8 8 12 16 15
2 3 1 5 5 5 4 1 5 4 2 5 5 9 8 8 8 8 13 9 11 12 14 18 19 17 17 18 19 18 17 16 16 15 14 8 5 7 11 12 14 15 17 18
3 4 2 5 5 6 5 4 3 5 5 5 5 9 5 8 9 9 9 9 10 12 16 17 18 16 13 17 18 17 18 16 15 16 3 5 3 10 13 14 17 17 18 20
6 5 3 4 5 2 6 3 7 7 8 7 6 8 8 9 7 11 8 6 9 10 14 14 15 16 15 15 17 17 15 13 13 11 6 8 8 11 14 16 17 17 15 18
9 5 2 2 3 6 2 6 4 5 9 5 6 8 8 7 6 9 2 2 5 8 11 11 13 12 13 15 16 16 13 12 12 10 8 7 8 13 15 17 18 17 19 19
7 5 4 1 3 5 6 5 4 3 7 5 6 7 7 6 7 7 3 5 7 8 8 11 14 12 13 15 15 14 11 10 12 11 10 10 9 13 16 18 18 18 20 19
3 2 7 4 4 7 5 7 1 1 9 3 4 7 7 3 7 8 4 5 4 7 9 11 9 11 13 14 14 13 10 11 11 10 11 11 10 16 17 19 17 18 19 22
2 3 5 2 3 6 3 7 2 6 4 4 6 8 7 8 9 6 1 5 8 9 10 11 10 10 11 12 11 11 9 9 11 11 11 11 12 12 14 21 17 20 21 22
2 5 3 7 6 4 5 7 8 4 5 7 5 9 7 7 8 5 2 5 6 8 9 9 9 12 11 12 11 8 8 10 11 13 13 13 14 13 14 19 19 17 18 18
3 1 2 4 4 6 9 7 5 6 8 9 7 9 5 8 9 3 2 4 5 6 9 8 11 10 10 11 10 8 9 10 12 13 13 12 13 14 14 13 12 15 14 15
5 2 2 5 6 8 4 8 8 11 8 6 8 6 7 6 9 1 3 4 4 6 6 7 8 8 9 10 9 9 10 11 12 12 12 12 11 14 14 13 10 10 7 9
6 7 5 6 4 4 9 9 10 6 5 8 6 9 8 7 4 4 4 3 3 5 5 8 9 7 9 9 9 10 10 10 11 10 10 10 11 11 10 11 13 24 23 23
Wind_Direction
0 64 257 257 203 218 240 246 251 254 267 335 292 115 90 72 65 40 6 350 5 354 335 343 351 347 341 343 344 344 329 305 287 251 232 201 203 213 213 207 194 193 204 208
18 224 234 282 207 197 210 239 293 293 274 185 284 81 114 56 56 37 345 357 357 351 351 344 342 347 342 323 324 329 324 316 303 268 233 285 201 210 207 204 189 191 204 210
166 253 308 305 347 147 217 215 252 236 305 305 259 99 191 123 65 336 340 330 355 357 345 336 336 334 332 328 324 314 314 307 296 274 279 238 317 28 131 191 200 200 199 213
274 287 289 299 200 119 280 261 262 288 7 271 42 271 270 255 332 345 347 354 345 339 331 319 324 324 322 317 309 308 303 302 298 292 267 246 237 230 197 196 199 199 202 203
275 307 356 48 327 291 233 340 309 322 285 51 350 73 266 341 336 335 326 329 316 307 318 319 318 312 309 312 308 305 298 293 287 280 266 261 253 252 250 213 200 206 208 210
262 302 49 316 297 359 312 348 32 50 75 36 250 99 275 260 233 278 297 309 311 321 324 318 315 309 300 314 313 304 300 289 276 271 268 243 246 248 232 225 215 206 205 204
331 342 317 11 3 346 43 43 353 1 6 236 230 14 244 236 244 272 302 310 319 312 319 313 318 315 311 322 324 319 310 300 287 272 260 255 241 235 231 224 213 198 191 188
29 334 15 346 251 250 341 117 145 204 256 283 307 239 266 210 250 283 285 286 305 314 315 314 312 311 318 324 321 319 317 310 302 287 266 254 245 237 228 226 212 206 198 196
25 283 315 12 307 133 107 39 204 106 24 12 275 303 316 301 286 294 320 320 304 310 313 310 308 311 306 324 326 316 317 315 315 307 276 259 243 232 235 217 205 203 190 187
216 325 282 308 9 1 104 170 30 14 19 300 293 278 243 337 329 309 303 299 302 316 323 316 309 317 315 306 314 317 319 312 312 305 300 263 245 235 237 213 203 198 191 183
124 120 283 355 30 313 9 32 57 129 138 198 294 266 212 260 293 290 300 299 306 317 308 312 312 315 321 324 317 316 315 310 317 307 301 290 258 224 227 216 201 187 189 175
74 142 286 250 260 233 191 137 164 147 269 235 251 275 258 297 286 286 297 291 293 305 311 310 313 319 323 323 315 312 314 316 320 313 298 290 264 229 216 206 190 166 167 172
180 6 338 350 355 17 317 277 239 135 80 227 208 264 298 305 317 305 297 293 295 305 313 322 318 324 324 325 324 321 323 328 315 311 306 290 267 223 197 166 172 165 147 141
92 144 161 195 232 213 289 284 279 182 170 228 235 282 303 296 290 302 301 284 290 304 309 321 327 322 326 328 327 322 321 319 316 312 303 303 283 200 174 169 162 149 136 125
102 229 187 243 255 259 266 271 292 201 228 181 280 271 289 289 297 290 286 285 314 320 326 331 329 323 327 333 327 325 317 316 314 306 305 297 292 197 131 134 118 119 116 116
1 264 304 283 283 269 272 44 40 60 316 249 279 292 255 293 299 303 304 309 312 319 326 330 324 324 325 332 324 323 320 315 309 293 287 288 245 120 118 118 115 109 109 111
179 172 114 270 321 327 298 242 214 241 234 223 258 254 300 303 312 296 289 301 300 314 330 329 325 321 327 330 320 321 316 317 317 317 212 82 46 99 100 104 108 112 112 111
173 160 180 254 352 263 250 224 257 243 254 242 275 277 283 266 276 279 287 272 297 323 329 323 322 319 339 324 323 324 322 330 335 356 3 83 91 94 97 101 102 104 106 111
180 141 177 218 195 288 269 256 236 204 281 220 247 282 283 292 307 291 280 273 300 313 312 311 312 326 331 329 328 325 329 345 357 14 7 69 96 103 107 100 102 104 104 100
108 105 145 193 195 240 250 273 264 103 287 232 220 273 290 333 343 294 310 341 322 310 310 318 320 332 333 333 330 327 335 1 9 7 32 56 82 99 102 106 102 102 100 100
119 159 201 231 254 293 250 300 347 78 257 251 258 268 273 262 224 271 337 333 295 293 320 327 333 336 333 329 333 334 347 16 24 28 45 56 79 88 98 101 102 104 100 100
219 176 203 152 191 255 346 334 191 233 295 254 260 261 266 270 285 281 311 323 334 332 333 339 343 341 333 333 338 341 12 29 45 44 55 59 71 85 91 97 99 101 101 97
289 178 208 177 224 229 270 243 268 238 257 274 258 271 260 271 272 288 8 349 343 331 340 346 347 347 342 343 345 2 18 37 54 57 57 64 71 79 90 97 101 101 106 106
303 185 220 21 293 289 306 311 287 286 267 281 280 276 271 264 283 291 48 2 352 335 350 347 358 351 350 350 355 23 39 55 64 66 67 72 82 84 82 88 95 100 104 108
207 6 239 260 287 307 322 313 296 301 316 323 319 281 270 255 274 81 72 28 1 345 4 352 353 353 357 360 27 35 45 59 67 68 69 71 75 79 83 71 71 91 72 99
173 212 173 228 210 192 268 297 309 320 321 318 320 318 311 237 274 120 94 67 18 6 359 11 8 6 15 21 31 41 48 61 71 71 76 78 86 83 84 89 85 57 71 72